Regional Weather Roundup
Issued by NWS

Home | Current Version | Previous Version | Graphics & Text | Print | Product List | Glossary On
Versions: 1 2 3 4 5 6 7 8 9 10 11 12 13 14 15 16 17 18 19 20 21 22 23 24 25 26 27 28 29 30 31 32 33 34 35 36 37 38 39 40 41 42 43 44 45 46 47 48 49 50
000
ASUS43 KLMK 230202
RWRKY
KENTUCKY REGIONAL WEATHER ROUNDUP
NATIONAL WEATHER SERVICE LOUISVILLE KY
1000 PM EDT TUE APR 22 2014

NOTE "FAIR" INDICATES FEW OR NO CLOUDS BELOW 12,000 FEET
WITH NO SIGNIFICANT WEATHER AND/OR OBSTRUCTIONS TO VISIBILITY.

KYZ001>023-026-027-061>063-070>075-230300-
WESTERN AND SOUTH CENTRAL KENTUCKY

CITY           SKY/WX    TMP DP  RH WIND       PRES   REMARKS
PADUCAH        CLEAR     60  40  47 N7        29.97R
HENDERSON      CLEAR     59  36  41 N5        29.96R
OWENSBORO      CLEAR     59  37  43 NW6       29.96R
HOPKINSVILLE   CLEAR     56  43  61 N7        29.94R
BOWLING GREEN  CLEAR     62  37  39 NW6       29.93R
GLASGOW        NOT AVBL
$$

KYZ024-025-028>034-038-045-046-053-230300-
NORTH CENTRAL KENTUCKY

CITY           SKY/WX    TMP DP  RH WIND       PRES   REMARKS
LOUISVILLE/SDF CLEAR     60  36  40 N10       29.93R
LOUISVILLE/LOU CLEAR     61  35  37 N8        29.93R
FORT KNOX      CLEAR     56  36  47 W6        29.92R
$$

KYZ035>037-039>044-047>052-055>060-089>105-230300-
NORTHEAST KENTUCKY

CITY           SKY/WX    TMP DP  RH WIND       PRES   REMARKS
LEXINGTON      CLEAR     56  34  43 N13       29.92R
COVINGTON      CLEAR     52  31  44 NW17G29   29.95R
FRANKFORT      CLEAR     57  28  33 N9        29.92R
$$

KYZ054-064>069-076>088-106>120-230300-
SOUTHEAST KENTUCKY

CITY           SKY/WX    TMP DP  RH WIND       PRES   REMARKS
JACKSON        PTCLDY    61  32  33 NW9       29.87R
LONDON         CLEAR     63  41  44 N9        29.88R
SOMERSET       NOT AVBL
MIDDLESBORO    NOT AVBL
MONTICELLO     CLEAR     61  41  47 NW8       29.91R
$$




USA.gov is the U.S. government's official web portal to all federal, state and local government web resources and services.